Location: *
(46.1200°N, 11.2700°E)
Time: 05:38:51
(UTC+00:00)

Cosmos 1241 Rocket - Pass Details

Date: 02 March 2021
Orbit: 929 x 1019 km, 65.8° (Epoch: 12 April)

Event Time Altitude Azimuth Distance (km) Brightness Sun altitude
Rises 19:00:27 0° 325° (NW) 3,768 8.3 -21.1°
Reaches altitude 10° 19:03:05 10° 328° (NNW) 2,810 7.5 -21.5°
Maximum altitude 19:09:42 71° 52° (NE) 1,066 4.5 -22.6°
Enters shadow 19:11:49 44° 122° (ESE) 1,351 4.8 -23.0°
